This is the latest recevied weather packets stored in our database for station/object DG4MND-4. If no packets are shown the sender has not sent any weather packets the latest 1 day(s).
| Time | Temp. | Humidity | Pressure | Rain* | Wind** | Luminosity | Snow |
|---|---|---|---|---|---|---|---|
| 1778014823 | 10.56° C | 97% | 1008.7 hPa | 0.51 mm | 0 m/s | - | - |
| 1778014219 | 10.56° C | 97% | 1008.7 hPa | 1.02 mm | 0.45 m/s, 158° | - | - |
| 1778013616 | 10.56° C | 96% | 1008.6 hPa | 1.02 mm | 0.45 m/s, 172° | - | - |
| 1778013073 | 11.11° C | 96% | 1008.8 hPa | 1.27 mm | 0.45 m/s, 161° | - | - |
| 1778012472 | 11.11° C | 95% | 1009 hPa | 1.52 mm | 0.45 m/s, 178° | - | - |
| 1778011866 | 11.11° C | 94% | 1009.1 hPa | 1.52 mm | 0.45 m/s, 187° | - | - |
| 1778011262 | 11.67° C | 92% | 1009 hPa | 1.02 mm | 0.45 m/s, 206° | - | - |
| 1778010659 | 11.67° C | 90% | 1009 hPa | 0.51 mm | 0.45 m/s, 147° | - | - |
| 1778010055 | 12.22° C | 88% | 1009.1 hPa | 0.51 mm | 0.89 m/s, 240° | - | - |
| 1778009452 | 12.78° C | 89% | 1008.8 hPa | 0.25 mm | 0.89 m/s, 212° | - | - |
| 1778008849 | 13.33° C | 93% | 1008.4 hPa | 0 mm | 0.45 m/s, 161° | - | - |
| 1778008245 | 13.33° C | 94% | 1008.2 hPa | 0 mm | 0.45 m/s, 156° | - | - |
| 1778007642 | 13.33° C | 91% | 1007.9 hPa | 0 mm | 0.45 m/s, 208° | - | - |
| 1778007041 | 13.33° C | 88% | 1007.8 hPa | 0 mm | 0.45 m/s, 177° | - | - |
| 1778006435 | 13.33° C | 85% | 1007.5 hPa | 0 mm | 0 m/s | - | - |
| 1778005832 | 13.89° C | 86% | 1007.2 hPa | 0 mm | 0.89 m/s, 7° | - | - |
| 1778004625 | 13.89° C | 85% | 1007.1 hPa | 0 mm | 0 m/s | - | - |
| 1778003421 | 14.44° C | 84% | 1007.2 hPa | 0 mm | 0 m/s | - | - |
| 1778002272 | 15° C | 81% | 1007.1 hPa | 0 mm | 0 m/s | - | - |
| 1778001068 | 15° C | 77% | 1006.4 hPa | 0.25 mm | 0 m/s | - | - |
| 1778000461 | 15° C | 76% | 1006.5 hPa | 0.25 mm | 0.45 m/s, 338° | - | - |
| 1777999857 | 15.56° C | 76% | 1006.4 hPa | 0.25 mm | 0.45 m/s, 338° | - | - |
| 1777999257 | 15.56° C | 79% | 1006.3 hPa | 0.25 mm | 0.45 m/s, 343° | - | - |
| 1777998653 | 15.56° C | 82% | 1006.5 hPa | 0.25 mm | 0 m/s | - | - |
| 1777998047 | 15.56° C | 83% | 1006.5 hPa | 0.25 mm | 0 m/s | - | - |
* Rain latest hour (hover to see other rain measurements)
** Current wind speed in m/s (hover to see current wind gust speed)